EIN990 EIDW-EINN

Flight info

Callsign EIN990
Flight time 0h 35m
Altitude 16000
Route PELIG2J PELIG DCT DIGAN DIGAN2D
Aircraft A21N/M-SDE2E3FGHIRWXY/LB1

Departure

Time 2026-05-01 12:14
Airport Dublin Airport (EIDW)

Arrival

Time 2026-05-01 12:50
Airport Shannon Airport (EINN)
Time Latitude Longitude Altitude Speed Heading
2026-05-01 12:00 53.42574 -6.26129 216 ft 0 kts
2026-05-01 12:06 53.42552 -6.26134 216 ft 4 kts 14°
2026-05-01 12:06 53.42528 -6.26150 223 ft 4 kts 36°
2026-05-01 12:06 53.42513 -6.26181 216 ft 4 kts 82°
2026-05-01 12:07 53.42512 -6.26193 216 ft 1 kts 95°
2026-05-01 12:09 53.42512 -6.26191 216 ft 1 kts 95°
2026-05-01 12:09 53.42510 -6.26155 223 ft 5 kts 95°
2026-05-01 12:09 53.42506 -6.26067 216 ft 10 kts 95°
2026-05-01 12:09 53.42493 -6.25925 222 ft 15 kts 117°
2026-05-01 12:10 53.42398 -6.25932 218 ft 19 kts 224°
2026-05-01 12:10 53.42269 -6.26384 216 ft 27 kts 276°
2026-05-01 12:10 53.42289 -6.26713 216 ft 30 kts 275°
2026-05-01 12:11 53.42329 -6.27447 216 ft 33 kts 275°
2026-05-01 12:11 53.42350 -6.27812 223 ft 33 kts 275°
2026-05-01 12:11 53.42366 -6.28104 221 ft 24 kts 275°
2026-05-01 12:12 53.42361 -6.28296 220 ft 10 kts 222°
2026-05-01 12:12 53.42276 -6.28304 222 ft 16 kts 153°
2026-05-01 12:12 53.42202 -6.28142 221 ft 20 kts 110°
2026-05-01 12:12 53.42189 -6.28042 217 ft 0 kts 95°
2026-05-01 12:13 53.42188 -6.28036 217 ft 0 kts 95°
2026-05-01 12:13 53.42188 -6.28033 217 ft 0 kts 95°
2026-05-01 12:13 53.42183 -6.27942 217 ft 35 kts 95°
2026-05-01 12:14 53.42127 -6.26999 217 ft 122 kts 95°
2026-05-01 12:14 53.42034 -6.25420 695 ft 139 kts 97°
2026-05-01 12:14 53.41945 -6.23833 1259 ft 149 kts 98°
2026-05-01 12:14 53.41851 -6.22079 1857 ft 153 kts 99°
2026-05-01 12:15 53.41744 -6.20164 2332 ft 183 kts 98°
2026-05-01 12:15 53.41610 -6.17798 2863 ft 224 kts 98°
2026-05-01 12:15 53.41451 -6.14994 3724 ft 255 kts 98°
2026-05-01 12:15 53.41284 -6.12000 5099 ft 262 kts 98°
2026-05-01 12:16 53.41112 -6.08911 6448 ft 271 kts 99°
2026-05-01 12:16 53.40934 -6.05732 7497 ft 275 kts 100°
2026-05-01 12:16 53.40854 -6.02504 8321 ft 284 kts 89°
2026-05-01 12:16 53.41482 -5.99314 8883 ft 297 kts 64°
2026-05-01 12:17 53.42894 -5.96723 9126 ft 309 kts 38°
2026-05-01 12:17 53.44882 -5.95329 9160 ft 314 kts 10°
2026-05-01 12:17 53.47040 -5.95547 10008 ft 313 kts 344°
2026-05-01 12:17 53.49168 -5.96734 10929 ft 337 kts 338°
2026-05-01 12:18 53.51467 -5.98174 11491 ft 370 kts 338°
2026-05-01 12:18 53.54051 -5.99380 11992 ft 401 kts 347°
2026-05-01 12:18 53.56860 -6.00323 12683 ft 419 kts 348°
2026-05-01 12:18 53.59751 -6.01234 13668 ft 427 kts 348°
2026-05-01 12:19 53.62697 -6.02156 14599 ft 432 kts 348°
2026-05-01 12:19 53.65675 -6.03104 15401 ft 440 kts 348°
2026-05-01 12:19 53.68699 -6.04088 15880 ft 445 kts 347°
2026-05-01 12:19 53.71639 -6.05683 16066 ft 444 kts 333°
2026-05-01 12:20 53.74278 -6.08509 16137 ft 453 kts 317°
2026-05-01 12:20 53.76482 -6.12279 16157 ft 451 kts 308°
2026-05-01 12:20 53.78573 -6.16233 16144 ft 451 kts 308°
2026-05-01 12:20 53.80666 -6.20179 16134 ft 451 kts 308°
2026-05-01 12:21 53.82771 -6.24123 16128 ft 451 kts 309°
2026-05-01 12:21 53.84880 -6.28047 16126 ft 451 kts 309°
2026-05-01 12:21 53.86999 -6.31985 16124 ft 452 kts 309°
2026-05-01 12:21 53.89112 -6.35917 16121 ft 451 kts 309°
2026-05-01 12:22 53.91089 -6.40019 16113 ft 447 kts 300°
2026-05-01 12:22 53.92449 -6.44699 16115 ft 439 kts 284°
2026-05-01 12:22 53.93049 -6.49709 16115 ft 430 kts 269°
2026-05-01 12:22 53.92900 -6.54710 16115 ft 420 kts 255°
2026-05-01 12:23 53.92064 -6.59395 16113 ft 412 kts 242°
2026-05-01 12:23 53.90672 -6.63525 16113 ft 407 kts 232°
2026-05-01 12:23 53.89061 -6.67453 16115 ft 406 kts 231°
2026-05-01 12:23 53.87443 -6.71376 16111 ft 406 kts 231°
2026-05-01 12:24 53.85835 -6.75305 16108 ft 406 kts 231°
2026-05-01 12:24 53.84236 -6.79239 16107 ft 406 kts 231°
2026-05-01 12:24 53.82634 -6.83182 16108 ft 406 kts 231°
2026-05-01 12:24 53.81035 -6.87115 16111 ft 406 kts 231°
2026-05-01 12:25 53.79445 -6.91048 16110 ft 406 kts 231°
2026-05-01 12:25 53.76262 -6.98911 16105 ft 406 kts 231°
2026-05-01 12:25 53.74667 -7.02828 16104 ft 406 kts 231°
2026-05-01 12:26 53.73062 -7.06757 16106 ft 406 kts 231°
2026-05-01 12:26 53.69856 -7.14591 16096 ft 405 kts 231°
2026-05-01 12:26 53.68248 -7.18507 16096 ft 406 kts 231°
2026-05-01 12:27 53.66643 -7.22413 16096 ft 405 kts 231°
2026-05-01 12:27 53.63411 -7.30186 16103 ft 403 kts 229°
2026-05-01 12:28 53.59304 -7.36084 15527 ft 386 kts 205°
2026-05-01 12:28 53.56807 -7.37674 15266 ft 382 kts 193°
2026-05-01 12:28 53.51563 -7.38080 14775 ft 379 kts 175°
2026-05-01 12:29 53.48941 -7.37655 14540 ft 379 kts 175°
2026-05-01 12:29 53.46321 -7.37230 14299 ft 378 kts 175°
2026-05-01 12:29 53.41088 -7.36429 13820 ft 377 kts 175°
2026-05-01 12:30 53.35881 -7.35664 13294 ft 374 kts 175°
2026-05-01 12:30 53.33291 -7.35286 13030 ft 373 kts 175°
2026-05-01 12:30 53.30712 -7.34915 12775 ft 372 kts 175°
2026-05-01 12:31 53.28138 -7.34554 12534 ft 371 kts 176°
2026-05-01 12:31 53.25563 -7.34618 12362 ft 370 kts 186°
2026-05-01 12:31 53.23053 -7.35544 12214 ft 367 kts 197°
2026-05-01 12:31 53.20815 -7.37270 12074 ft 344 kts 208°
2026-05-01 12:32 53.18951 -7.39568 11934 ft 325 kts 219°
2026-05-01 12:32 53.16324 -7.45213 11669 ft 297 kts 237°
2026-05-01 12:32 53.15436 -7.48184 11535 ft 283 kts 239°
2026-05-01 12:33 53.14590 -7.51089 11403 ft 280 kts 239°
2026-05-01 12:33 53.13720 -7.54034 11287 ft 279 kts 238°
2026-05-01 12:33 53.12856 -7.56926 11146 ft 279 kts 238°
2026-05-01 12:33 53.12005 -7.59768 11029 ft 277 kts 238°
2026-05-01 12:34 53.11142 -7.62638 10910 ft 277 kts 238°
2026-05-01 12:34 53.10279 -7.65497 10787 ft 277 kts 238°
2026-05-01 12:34 53.09413 -7.68362 10667 ft 277 kts 238°
2026-05-01 12:34 53.08547 -7.71220 10546 ft 277 kts 238°
2026-05-01 12:35 53.07670 -7.74110 10424 ft 276 kts 238°
2026-05-01 12:35 53.06817 -7.76917 10308 ft 276 kts 238°
2026-05-01 12:35 53.05951 -7.79762 10188 ft 275 kts 238°
2026-05-01 12:35 53.05091 -7.82592 10069 ft 274 kts 238°
2026-05-01 12:36 53.04230 -7.85416 9945 ft 274 kts 238°
2026-05-01 12:36 53.03370 -7.88241 9808 ft 274 kts 238°
2026-05-01 12:36 53.02514 -7.91054 9687 ft 273 kts 238°
2026-05-01 12:36 53.01660 -7.93848 9553 ft 272 kts 238°
2026-05-01 12:37 53.00803 -7.96648 9419 ft 272 kts 238°
2026-05-01 12:37 52.99945 -7.99445 9289 ft 272 kts 238°
2026-05-01 12:37 52.99087 -8.02234 9159 ft 272 kts 238°
2026-05-01 12:37 52.98226 -8.05029 9025 ft 271 kts 239°
2026-05-01 12:38 52.97371 -8.07812 8894 ft 270 kts 239°
2026-05-01 12:38 52.96515 -8.10591 8765 ft 270 kts 239°
2026-05-01 12:38 52.95664 -8.13351 8624 ft 269 kts 239°
2026-05-01 12:38 52.94811 -8.16115 8461 ft 269 kts 239°
2026-05-01 12:39 52.93979 -8.18882 8186 ft 268 kts 243°
2026-05-01 12:39 52.93519 -8.21890 7821 ft 272 kts 259°
2026-05-01 12:39 52.93356 -8.25038 7294 ft 275 kts 262°
2026-05-01 12:39 52.93212 -8.28196 6868 ft 273 kts 262°
2026-05-01 12:40 52.93063 -8.31313 6498 ft 270 kts 262°
2026-05-01 12:40 52.92908 -8.34397 6153 ft 265 kts 262°
2026-05-01 12:40 52.92745 -8.37369 6082 ft 251 kts 261°
2026-05-01 12:40 52.92590 -8.40166 6078 ft 236 kts 261°
2026-05-01 12:41 52.92448 -8.42745 6068 ft 223 kts 261°
2026-05-01 12:41 52.92178 -8.45169 6062 ft 205 kts 244°
2026-05-01 12:41 52.91458 -8.47084 5984 ft 191 kts 230°
2026-05-01 12:41 52.90658 -8.48770 5848 ft 183 kts 229°
2026-05-01 12:42 52.89870 -8.50437 5525 ft 186 kts 229°
2026-05-01 12:42 52.89065 -8.52162 5120 ft 194 kts 230°
2026-05-01 12:42 52.88429 -8.53526 4777 ft 201 kts 230°
2026-05-01 12:42 52.87558 -8.55402 4318 ft 209 kts 230°
2026-05-01 12:43 52.86676 -8.57298 4084 ft 205 kts 230°
2026-05-01 12:43 52.85824 -8.59125 3975 ft 196 kts 230°
2026-05-01 12:43 52.85009 -8.60866 3875 ft 186 kts 230°
2026-05-01 12:43 52.84238 -8.62517 3780 ft 176 kts 230°
2026-05-01 12:44 52.83501 -8.64097 3633 ft 171 kts 229°
2026-05-01 12:44 52.82777 -8.65650 3414 ft 170 kts 229°
2026-05-01 12:44 52.81345 -8.68725 2998 ft 164 kts 230°
2026-05-01 12:45 52.79996 -8.71605 2555 ft 155 kts 229°
2026-05-01 12:45 52.79372 -8.72950 2440 ft 137 kts 229°
2026-05-01 12:45 52.78830 -8.74114 2277 ft 124 kts 228°
2026-05-01 12:46 52.78311 -8.75231 2127 ft 121 kts 229°
2026-05-01 12:46 52.77795 -8.76329 1999 ft 121 kts 228°
2026-05-01 12:46 52.77272 -8.77439 1864 ft 124 kts 229°
2026-05-01 12:46 52.76749 -8.78564 1783 ft 120 kts 229°
2026-05-01 12:47 52.76419 -8.79271 1752 ft 117 kts 227°
2026-05-01 12:47 52.75754 -8.80682 1567 ft 116 kts 227°
2026-05-01 12:47 52.75261 -8.81749 1424 ft 118 kts 230°
2026-05-01 12:47 52.74791 -8.82822 1344 ft 114 kts 229°
2026-05-01 12:48 52.74314 -8.83830 1226 ft 112 kts 226°
2026-05-01 12:48 52.73823 -8.84818 1047 ft 110 kts 227°
2026-05-01 12:48 52.73367 -8.85820 812 ft 108 kts 228°
2026-05-01 12:48 52.72923 -8.86818 687 ft 109 kts 226°
2026-05-01 12:49 52.72407 -8.87812 533 ft 118 kts 226°
2026-05-01 12:49 52.71893 -8.88915 409 ft 124 kts 229°
2026-05-01 12:49 52.71357 -8.90074 180 ft 130 kts 229°
2026-05-01 12:49 52.70803 -8.91236 45 ft 125 kts 228°
2026-05-01 12:50 52.70454 -8.91953 37 ft 108 kts 231°
2026-05-01 12:50 52.70180 -8.92531 38 ft 33 kts 232°
2026-05-01 12:50 52.70037 -8.92839 42 ft 35 kts 232°
2026-05-01 12:50 52.69929 -8.92961 43 ft 10 kts 144°
2026-05-01 12:51 52.69883 -8.92905 34 ft 7 kts 139°
2026-05-01 12:51 52.69846 -8.92851 30 ft 8 kts 138°
2026-05-01 12:51 52.69728 -8.92650 28 ft 17 kts 134°
2026-05-01 12:52 52.69636 -8.92498 28 ft 21 kts 135°
2026-05-01 12:52 52.69469 -8.92027 28 ft 27 kts 103°
2026-05-01 12:52 52.69418 -8.91789 28 ft 17 kts 134°
2026-05-01 12:53 52.69318 -8.91820 28 ft 2 kts 220°
2026-05-01 12:53 52.69310 -8.91831 28 ft 0 kts 219°